www.pogodaiklimat.ru
ПОГОДА в Лонг-Биче
Время
и дата
08:35 15.07
08:43 15.07
08:53 15.07
09:53 15.07
10:53 15.07
11:53 15.07
12:53 15.07
13:53 15.07
14:53 15.07
15:53 15.07
16:53 15.07
17:53 15.07
18:53 15.07
19:53 15.07
20:53 15.07
21:53 15.07
22:53 15.07
23:53 15.07
00:53 16.07
01:53 16.07
02:53 16.07
03:53 16.07
04:53 16.07
05:53 16.07
06:53 16.07
07:53 16.07
08:20 16.07
08:53 16.07
09:53 16.07
10:53 16.07
11:53 16.07
12:53 16.07
13:53 16.07
14:53 16.07
15:53 16.07
16:53 16.07
17:53 16.07
18:53 16.07
19:53 16.07
20:53 16.07
21:53 16.07
22:53 16.07
23:53 16.07
00:53 17.07
01:53 17.07
02:53 17.07
03:53 17.07
04:53 17.07
Ветер
(напр.,м/с)
Видим. Явления Облачность Т
(С)
Тd
(С)
f
(%)
Тe
(С)
Тes
(С)
Комфортность P
(гПа)
Po
(гПа)
Тmin
(С)
Tmax
(С)
R
(мм)
R24
(мм)
S
(см)
штиль 0 3 км мгла 8/8 420 м +22.8 +16.1 66 +27 +30 душно 1015.8
штиль 0 11 км 8/8 420 м +23.3 +17.2 69 +29 +31 душно 1015.8
штиль 0 11 км 2/2 420 м +22.8 +16.7 68 +27 +36 душно 1017.6 1015.4
Ю 3 16 км 2/2 420 м +24.4 +17.2 64 +28 +37 душно 1016.9 1014.8 +19.4 +24.4
ЮЗ 5 10 км мгла ясно +23.9 +16.7 64 +27 +37 жарко 1016.7 1014.8
Ю 4 16 км ясно +24.4 +16.7 62 +28 +42 душно 1016.0 1014.1
Ю 4 16 км ясно +26.1 +16.7 56 +30 +44 душно 1015.0 1013.1
СЗ 4 16 км ясно +28.3 +16.7 49 +32 +45 душно 1014.1 1012.1
СЗ 6 16 км ясно +26.7 +16.7 54 +30 +37 душно 1013.6 1011.7
СЗ 5 16 км ясно +25.6 +16.1 56 +29 +35 душно 1013.3 1011.4 +23.3 +28.9
СЗ 6 16 км ясно +25.6 +15.6 54 +29 +31 душно 1013.2 1011.0
СЗ 6 16 км ясно +23.9 +15.0 57 +27 +28 жарко 1013.0 1011.0
СЗ 4 16 км ясно +22.8 +15.0 61 +27 +27 душно 1013.4 1011.4
СЗ 4 16 км ясно +22.2 +16.1 68 +26 +26 душно 1014.1 1012.1
СЗ 3 16 км ясно +21.7 +15.6 68 +25 +25 комфорт 1014.9 1012.7
СЗ 2 16 км ясно +22.2 +13.9 59 +25 +25 комфорт 1015.2 1013.1 +21.7 +25.6
С 2 16 км ясно +21.7 +14.4 63 +25 +25 комфорт 1015.4 1013.4
СЗ 2 16 км ясно +21.1 +15.0 68 +24 +24 комфорт 1015.1 1013.1
штиль 0 16 км ясно +21.1 +15.6 71 +24 +24 комфорт 1014.7 1012.7
ЮВ 2 16 км ясно +21.1 +15.6 71 +24 +24 комфорт 1014.6 1012.4
Ю 2 16 км ясно +20.0 +16.1 78 +23 +23 комфорт 1014.4 1012.4
ЮВ 2 16 км ясно +20.0 +16.1 78 +23 +23 комфорт 1014.7 1012.7 +20.0 +22.2
ЮВ 2 16 км ясно +19.4 +16.1 81 +22 +22 комфорт 1015.2 1013.1
нст 2 16 км ясно +20.0 +16.1 78 +23 +23 комфорт 1015.4 1013.4
нст 3 16 км 5/5 420 м +21.1 +15.6 71 +24 +25 комфорт 1016.4 1014.4
штиль 0 16 км 8/8 420 м +21.1 +16.1 73 +24 +25 комфорт 1016.6 1014.4
нст 2 16 км 5/5 480 м +21.7 +16.7 73 +26 +30 душно 1014.1
нст 2 16 км 2/2 480 м +23.9 +16.7 64 +27 +34 жарко 1016.2 1014.1
ЮЗ 3 16 км ясно +24.4 +16.7 62 +28 +39 душно 1016.0 1013.8 +19.4 +25.0
ЮЗ 4 16 км ясно +24.4 +17.2 64 +28 +40 душно 1015.9 1013.8
Ю 4 16 км ясно +25.6 +17.2 60 +30 +43 душно 1015.4 1013.4
Ю 5 16 км ясно +25.0 +17.2 62 +29 +40 душно 1015.2 1013.1
Ю 5 16 км ясно +25.6 +17.2 60 +30 +40 душно 1014.4 1012.4
Ю 4 16 км ясно +26.7 +16.7 54 +30 +41 душно 1013.8 1011.7
СЗ 6 16 км ясно +26.7 +16.7 54 +30 +35 душно 1013.1 1011.0 +24.4 +27.8
СЗ 6 16 км ясно +25.6 +16.1 56 +29 +32 душно 1012.8 1010.7
З 6 16 км ясно +24.4 +14.4 54 +27 +28 жарко 1012.9 1010.7
СЗ 5 16 км ясно +23.3 +14.4 57 +27 +27 душно 1013.2 1011.0
СЗ 5 16 км ясно +22.2 +15.0 64 +26 +26 душно 1013.5 1011.4
СЗ 4 16 км ясно +22.2 +15.0 64 +26 +26 душно 1013.8 1011.7
СЗ 2 16 км ясно +22.2 +14.4 61 +25 +25 комфорт 1013.8 1011.7 +22.2 +26.7
СЗ 3 16 км ясно +21.7 +14.4 63 +25 +25 комфорт 1013.8 1011.7
штиль 0 16 км ясно +21.7 +14.4 63 +25 +25 комфорт 1014.0 1012.1
штиль 0 16 км ясно +21.1 +16.1 73 +24 +24 комфорт 1013.8 1011.7
штиль 0 16 км ясно +21.1 +16.7 76 +25 +25 комфорт 1013.9 1011.7
штиль 0 16 км ясно +20.6 +16.7 78 +24 +24 комфорт 1013.8 1011.7
ЮВ 2 16 км ясно +20.6 +16.7 78 +25 +25 комфорт 1014.2 1012.1 +20.6 +22.2
ЮВ 2 16 км ясно +20.0 +16.1 78 +23 +23 комфорт 1014.6 1012.4
Местоположение метеостанции Long Beach Airport: широта 33.8117 долгота -118.1464 высота над уровнем моря 17 м.
В архиве по умолчанию представлена погода в Лонг-Биче за последние 1-2 суток. Обновление информации о фактической погоде в базе происходит ежечасно! Архивные данные за месяц целиком и за предыдущие месяцы Вы можете получить, выбрав интересующий диапазон дат из раскрывающегося списка и нажав кнопку "Ввод!".
Внимание! Архив погоды МЕТАР в базе сайта по станциям, не включенным в климатический монитор, хранится не более 60 дней. Нет смысла пытаться выбрать более раннюю дату.
*Определитесь, кто Вы:
Внимание! Время в таблицах - местное (без учета летнего времени). Для получения всемирного времени необходимо вычесть поправку, которая равна -8 ч.
Смотрите также архив погоды в соседних городах и на ближайших метеорологических станциях:
Партнеры нашего сайта:      
Пояснения к столбцам:
  • Ветер - указаны скорость ветра в м/с - средняя за 10 мин, порывы в срок и между сроками (в фигурных скобках) и направление, откуда дует ветер: С - северный,
  • СВ - северо-восточный, В - восточный, ЮВ - юго-восточный, Ю - южный, ЮЗ - юго-западный, З - западный, СЗ - северо-западный.
  • Видимость - горизонтальная дальность видимости в метрах или километрах. При видимости от 1 до 10 км при отсутствии осадков обычно наблюдается дымка, при ухудшении видимости до 1 км и менее - туман. В сухую погоду видимость может ухудшаться дымом, пылью или мглою.
  • Явления - указаны атмосферные явления, наблюдавшиеся в срок или в последний час перед сроком; фигурными скобками обозначены явления, наблюдавшиеся между сроками (за 1-3 часа до срока); квадратными скобками обозначены град или гололедные отложения с указанием их диаметра в мм.
  • Облачность - указаны через наклонную черту общая и нижняя облачность в баллах и высота нижней границы облаков в метрах; квадратными скобками обозначены формы облаков: Ci - перистые, Cs - перисто-слоистые, Cc - перисто-кучевые, Ac - высококучевые, As - высокослоистые, Sc - слоисто-кучевые, Ns - слоисто-дождевые, Cu - кучевые, Cb - кучево-дождевые. Подробнее классификацию облаков см. в Атласе облаков (PDF).
  • T - Температура воздуха - температура, измеренная на высоте 2 м над землей.
  • Td - Температура точки росы - температура, при понижении до которой содержащийся в воздухе водяной пар достигнет насыщения.
  • f - Относительная влажность воздуха - влажноcть воздуха, измеренная на высоте 2 м над землей.
  • Te - Эффективная температура - температура, которую ощущает одетый по сезону человек в тени. Характеристика душности погоды. При расчете учитывается влияние влажности воздуха и скорости ветра на теплоощущения человека.
  • Tes - Эффективная температура на солнце - температура, которую ощущает человек, с поправкой на солнечный нагрев. Характеристика знойности погоды. Зависит от высоты солнца над горизонтом, облачности и скорости ветра. Ночью, в пасмурную погоду, а также при ветре 12 м/с и более поправка равна нулю.
  • P - Атмосферное давление - приведенное к уровню моря атмосферное давление.
  • Po - Атмосферное давление - измеренное на уровне метеостанции атмосферное давление.
  • Tmin - Минимальная температура - минимум температуры воздуха на высоте 2 м над землей.
  • Tmax - Максимальная температура - максимум температуры воздуха на высоте 2 м над землей.
  • R - Количество осадков - Количество выпавших осадков за период времени, мм. При наведении курсора мыши на число - период времени, за который выпало указанное количество осадков.
  • R24 - Количество осадков - Количество выпавших осадков за 24 часа, мм.
  • S - Снежный покров - Высота снежного покрова, см. При наведении курсора мыши на число - состояние снежного покрова и степень покрытия местности в баллах.